FW2000 Weather Reports


Display with metric or nautical units.
time (UTC)temp
F
wind
direction
speed
MPH
gust
MPH
rain 1hr
in
rain 24hr
in
rain mn
in
humidity
%
barometer
mb
20220521001052 72 294 1.0 11.0 0.00 0.00 0.00 21 1007.3
20220521000553 72 265 4.0 11.0 0.00 0.00 0.00 22 1007.2
20220521000120 72 302 3.0 6.0 0.00 0.00 0.00 23 1007.2
20220520235552 71 215 2.0 8.0 0.00 0.00 0.00 21 1007.3
20220520235052 72 244 4.0 10.0 0.00 0.00 0.00 20 1007.3
20220520234554 71 220 2.0 7.0 0.00 0.00 0.00 23 1007.2
20220520234051 71 299 3.0 10.0 0.00 0.00 0.00 22 1007.3
20220520233550 71 259 4.0 10.0 0.00 0.00 0.00 22 1007.3
20220520233052 71 25 1.0 7.0 0.00 0.00 0.00 21 1007.3
20220520232551 71 290 2.0 7.0 0.00 0.00 0.00 21 1007.4
20220520232050 71 215 3.0 10.0 0.00 0.00 0.00 20 1007.3
20220520231554 71 239 3.0 10.0 0.00 0.00 0.00 21 1007.3
20220520231053 72 196 3.0 8.0 0.00 0.00 0.00 22 1007.4
20220520230550 72 211 2.0 7.0 0.00 0.00 0.00 21 1007.5
20220520230056 73 279 2.0 8.0 0.00 0.00 0.00 20 1007.4
20220520225548 73 194 2.0 10.0 0.00 0.00 0.00 20 1007.5
20220520225049 73 336 5.0 10.0 0.00 0.00 0.00 21 1007.6
20220520224548 73 292 3.0 9.0 0.00 0.00 0.00 22 1007.7
20220520224046 72 344 3.0 9.0 0.00 0.00 0.00 22 1007.7
20220520223545 71 250 0.0 10.0 0.00 0.00 0.00 22 1007.6
20220520223046 70 256 4.0 10.0 0.00 0.00 0.00 22 1007.7
20220520222544 71 277 4.0 9.0 0.00 0.00 0.00 23 1007.8
20220520222047 71 289 3.0 11.0 0.00 0.00 0.00 22 1007.7
20220520221544 71 249 6.0 11.0 0.00 0.00 0.00 23 1007.6
20220520221043 71 238 4.0 8.0 0.00 0.00 0.00 23 1007.6
20220520220545 70 244 3.0 8.0 0.00 0.00 0.00 24 1007.7
20220520220043 71 217 5.0 8.0 0.00 0.00 0.00 23 1007.6
20220520215546 71 240 2.0 7.0 0.00 0.00 0.00 24 1007.7
20220520215042 71 224 4.0 10.0 0.00 0.00 0.00 23 1007.6
20220520214542 71 220 4.0 10.0 0.00 0.00 0.00 24 1007.5
20220520214041 70 238 3.0 10.0 0.00 0.00 0.00 24 1007.6
20220520213540 70 253 4.0 12.0 0.00 0.00 0.00 24 1007.6
20220520213041 70 220 4.0 12.0 0.00 0.00 0.00 25 1007.5
20220520212541 69 296 5.0 11.0 0.00 0.00 0.00 25 1007.4
20220520212043 69 263 4.0 12.0 0.00 0.00 0.00 26 1007.3
20220520211548 69 209 5.0 12.0 0.00 0.00 0.00 24 1007.2
20220520211038 70 288 1.0 9.0 0.00 0.00 0.00 24 1007.3
20220520210537 70 302 5.0 9.0 0.00 0.00 0.00 25 1007.1
20220520210049 69 237 4.0 9.0 0.00 0.00 0.00 24 1007.2
20220520205537 70 220 2.0 7.0 0.00 0.00 0.00 24 1007.1
20220520205036 70 266 3.0 9.0 0.00 0.00 0.00 25 1007.2
20220520204535 70 300 3.0 9.0 0.00 0.00 0.00 25 1007.1
20220520204034 69 276 3.0 10.0 0.00 0.00 0.00 24 1007.1
20220520203534 70 212 5.0 10.0 0.00 0.00 0.00 24 1007.1
20220520203033 70 308 3.0 8.0 0.00 0.00 0.00 25 1006.9
20220520202532 69 211 2.0 8.0 0.00 0.00 0.00 27 1006.8
20220520202032 69 300 3.0 10.0 0.00 0.00 0.00 24 1007.0
20220520201530 68 290 4.0 10.0 0.00 0.00 0.00 26 1007.0
20220520201032 68 296 2.0 10.0 0.00 0.00 0.00 26 1006.9
20220520200530 67 263 3.0 10.0 0.00 0.00 0.00 26 1006.8
20220520200030 67 252 2.0 8.0 0.00 0.00 0.00 26 1006.8
20220520195530 67 221 3.0 6.0 0.00 0.00 0.00 26 1006.9
20220520195031 68 266 2.0 10.0 0.00 0.00 0.00 28 1006.9
20220520194528 67 211 3.0 11.0 0.00 0.00 0.00 28 1006.8
20220520194026 67 293 5.0 11.0 0.00 0.00 0.00 28 1006.8
20220520193525 66 250 3.0 9.0 0.00 0.00 0.00 30 1006.9
20220520193026 65 306 4.0 11.0 0.00 0.00 0.00 30 1006.9
20220520192522 65 241 5.0 11.0 0.00 0.00 0.00 30 1006.8
20220520192024 65 302 7.0 11.0 0.00 0.00 0.00 29 1006.8
20220520191522 64 315 2.0 11.0 0.00 0.00 0.00 31 1006.7
20220520191021 64 217 4.0 11.0 0.00 0.00 0.00 31 1006.6
20220520190522 64 277 5.0 10.0 0.00 0.00 0.00 30 1006.6
20220520190019 64 257 4.0 13.0 0.00 0.00 0.00 31 1006.6
20220520185518 63 284 5.0 13.0 0.00 0.00 0.00 32 1006.6
20220520185018 63 251 5.0 11.0 0.00 0.00 0.00 32 1006.7
20220520184523 63 302 5.0 11.0 0.00 0.00 0.00 32 1006.6
20220520184015 64 318 5.0 12.0 0.00 0.00 0.00 31 1006.6
20220520183515 64 301 7.0 13.0 0.00 0.00 0.00 33 1006.4
20220520183013 63 267 5.0 13.0 0.00 0.00 0.00 32 1006.4
20220520182511 64 295 5.0 11.0 0.00 0.00 0.00 31 1006.4
20220520182011 64 275 3.0 10.0 0.00 0.00 0.00 33 1006.3
20220520181509 64 270 5.0 10.0 0.00 0.00 0.00 34 1006.3
20220520181008 64 276 3.0 10.0 0.00 0.00 0.00 34 1006.3
20220520180508 63 291 5.0 10.0 0.00 0.00 0.00 35 1006.2
20220520180006 64 311 6.0 10.0 0.00 0.00 0.00 34 1006.2
20220520175505 64 282 4.0 10.0 0.00 0.00 0.00 34 1006.0
20220520175004 64 254 2.0 8.0 0.00 0.00 0.00 35 1006.0
20220520174507 63 288 3.0 8.0 0.00 0.00 0.00 34 1005.9
20220520174001 63 300 2.0 9.0 0.00 0.00 0.00 35 1005.9
20220520173559 63 288 3.0 9.0 0.00 0.00 0.00 35 1005.8
20220520173108 63 295 2.0 8.0 0.00 0.00 0.00 34 1005.8
20220520172557 63 319 4.0 8.0 0.00 0.00 0.00 34 1005.8
20220520172106 63 300 2.0 8.0 0.00 0.00 0.00 34 1005.8
20220520171554 63 302 4.0 8.0 0.00 0.00 0.00 31 1005.8
20220520171053 63 305 2.0 7.0 0.00 0.00 0.00 33 1005.7
20220520170553 63 294 2.0 5.0 0.00 0.00 0.00 32 1005.7
20220520170057 63 275 1.0 8.0 0.00 0.00 0.00 34 1005.6
20220520165558 63 299 3.0 8.0 0.00 0.00 0.00 33 1005.6
20220520165053 63 287 1.0 7.0 0.00 0.00 0.00 36 1005.7
20220520164550 63 294 2.0 7.0 0.00 0.00 0.00 35 1005.7
20220520164049 63 304 2.0 7.0 0.00 0.00 0.00 36 1005.7
20220520163549 63 292 3.0 6.0 0.00 0.00 0.00 37 1005.6
20220520163104 63 311 1.0 4.0 0.00 0.00 0.00 39 1005.6
20220520162552 63 328 1.0 4.0 0.00 0.00 0.00 39 1005.5
20220520162047 63 317 1.0 4.0 0.00 0.00 0.00 39 1005.5
20220520161547 63 81 0.0 3.0 0.00 0.00 0.00 40 1005.5
20220520161046 62 89 0.0 3.0 0.00 0.00 0.00 42 1005.5
20220520160545 62 89 0.0 3.0 0.00 0.00 0.00 42 1005.5
20220520160045 62 89 1.0 3.0 0.00 0.00 0.00 43 1005.5
20220520155544 61 96 0.0 1.0 0.00 0.00 0.00 43 1005.5
20220520155044 61 98 0.0 1.0 0.00 0.00 0.00 42 1005.4
20220520154543 60 98 0.0 3.0 0.00 0.00 0.00 42 1005.4
20220520154042 60 98 0.0 3.0 0.00 0.00 0.00 40 1005.4
20220520153541 60 91 0.0 1.0 0.00 0.00 0.00 35 1005.4
20220520153042 60 91 0.0 1.0 0.00 0.00 0.00 41 1005.5
20220520152542 59 91 0.0 1.0 0.00 0.00 0.00 44 1005.2
20220520152041 59 91 0.0 1.0 0.00 0.00 0.00 43 1005.3
20220520151540 59 91 0.0 1.0 0.00 0.00 0.00 44 1005.2
20220520151040 58 91 0.0 1.0 0.00 0.00 0.00 44 1005.2
20220520150541 58 91 0.0 0.0 0.00 0.00 0.00 42 1005.1
20220520150043 58 91 0.0 0.0 0.00 0.00 0.00 39 1005.1
20220520145538 58 91 0.0 0.0 0.00 0.00 0.00 37 1005.1
20220520145045 58 91 0.0 0.0 0.00 0.00 0.00 38 1005.0
20220520144537 58 91 0.0 1.0 0.00 0.00 0.00 36 1005.0
20220520144039 58 91 0.0 2.0 0.00 0.00 0.00 34 1004.9
20220520143536 57 91 0.0 3.0 0.00 0.00 0.00 36 1004.9
20220520143035 57 91 0.0 3.0 0.00 0.00 0.00 35 1004.8
20220520142533 56 91 1.0 2.0 0.00 0.00 0.00 33 1004.7
20220520142033 55 91 0.0 3.0 0.00 0.00 0.00 33 1004.6
20220520141534 55 92 0.0 2.0 0.00 0.00 0.00 34 1004.5
20220520141031 54 92 0.0 2.0 0.00 0.00 0.00 32 1004.6
20220520140632 54 92 0.0 1.0 0.00 0.00 0.00 33 1004.6
20220520140030 53 92 0.0 2.0 0.00 0.00 0.00 34 1004.6
20220520135530 53 91 0.0 2.0 0.00 0.00 0.00 34 1004.5
20220520135028 53 92 1.0 2.0 0.00 0.00 0.00 34 1004.5
20220520134528 53 91 0.0 2.0 0.00 0.00 0.00 34 1004.5
20220520134026 53 92 1.0 2.0 0.00 0.00 0.00 33 1004.5
20220520133527 53 90 1.0 3.0 0.00 0.00 0.00 35 1004.5
20220520133024 53 90 0.0 3.0 0.00 0.00 0.00 36 1004.5
20220520132526 53 90 0.0 2.0 0.00 0.00 0.00 34 1004.5
20220520132022 53 90 0.0 2.0 0.00 0.00 0.00 33 1004.5
20220520131545 53 90 0.0 2.0 0.00 0.00 0.00 33 1004.4
20220520131021 53 90 0.0 2.0 0.00 0.00 0.00 35 1004.5
20220520130521 53 90 1.0 3.0 0.00 0.00 0.00 36 1004.5
20220520130021 53 90 1.0 3.0 0.00 0.00 0.00 37 1004.6
20220520125520 53 90 1.0 3.0 0.00 0.00 0.00 37 1004.5
20220520125021 54 90 0.0 3.0 0.00 0.00 0.00 33 1004.5
20220520124518 54 90 1.0 3.0 0.00 0.00 0.00 33 1004.4
20220520124017 54 90 1.0 4.0 0.00 0.00 0.00 32 1004.4
20220520123517 54 90 2.0 4.0 0.00 0.00 0.00 33 1004.4
20220520123017 54 90 1.0 4.0 0.00 0.00 0.00 32 1004.3
20220520122520 54 90 2.0 4.0 0.00 0.00 0.00 32 1004.4
20220520122015 54 90 1.0 4.0 0.00 0.00 0.00 32 1004.4
20220520121520 54 82 2.0 4.0 0.00 0.00 0.00 33 1004.5
20220520121014 54 66 1.0 3.0 0.00 0.00 0.00 33 1004.5
20220520120513 54 66 0.0 2.0 0.00 0.00 0.00 33 1004.5
20220520120026 54 66 0.0 2.0 0.00 0.00 0.00 33 1004.5
20220520115513 55 66 0.0 3.0 0.00 0.00 0.00 33 1004.5
20220520115011 55 66 0.0 4.0 0.00 0.00 0.00 32 1004.4
20220520114511 55 66 1.0 4.0 0.00 0.00 0.00 32 1004.5
20220520114110 55 66 0.0 3.0 0.00 0.00 0.00 32 1004.5
20220520113514 55 66 1.0 4.0 0.00 0.00 0.00 34 1004.5
20220520113007 55 66 2.0 5.0 0.00 0.00 0.00 31 1004.6
20220520112509 55 61 2.0 4.0 0.00 0.00 0.00 32 1004.6
20220520112008 56 59 2.0 4.0 0.00 0.00 0.00 32 1004.6
20220520111508 56 57 2.0 4.0 0.00 0.00 0.00 33 1004.6
20220520111005 56 42 1.0 3.0 0.00 0.00 0.00 33 1004.7
20220520110506 56 42 1.0 3.0 0.00 0.00 0.00 33 1004.7
20220520110003 56 36 2.0 3.0 0.00 0.00 0.00 33 1004.7
20220520105502 57 26 1.0 3.0 0.00 0.00 0.00 33 1004.8
20220520105001 57 26 1.0 3.0 0.00 0.00 0.00 33 1004.8
20220520104601 57 21 1.0 2.0 0.00 0.00 0.00 32 1004.8
20220520104100 57 21 0.0 3.0 0.00 0.00 0.00 32 1004.9
20220520103558 57 20 2.0 3.0 0.00 0.00 0.00 34 1004.9
20220520103058 57 19 1.0 3.0 0.00 0.00 0.00 34 1004.9
20220520102558 57 360 1.0 3.0 0.00 0.00 0.00 33 1004.9
20220520102057 57 360 1.0 3.0 0.00 0.00 0.00 32 1005.0
20220520101556 58 350 1.0 3.0 0.00 0.00 0.00 35 1005.0
20220520101055 58 342 1.0 3.0 0.00 0.00 0.00 35 1005.1
20220520100554 58 311 1.0 2.0 0.00 0.00 0.00 36 1005.1
20220520100053 58 302 0.0 1.0 0.00 0.00 0.00 32 1005.0
20220520095555 58 302 0.0 1.0 0.00 0.00 0.00 31 1005.1
20220520095053 58 302 0.0 1.0 0.00 0.00 0.00 30 1005.2
20220520094600 58 302 0.0 1.0 0.00 0.00 0.00 36 1005.2
20220520094051 59 302 0.0 1.0 0.00 0.00 0.00 36 1005.2
20220520093553 59 302 0.0 1.0 0.00 0.00 0.00 35 1005.3
20220520093054 59 302 0.0 2.0 0.00 0.00 0.00 37 1005.3
20220520092550 59 302 0.0 1.0 0.00 0.00 0.00 33 1005.4
20220520092047 59 302 0.0 2.0 0.00 0.00 0.00 38 1005.5
20220520091548 59 302 0.0 2.0 0.00 0.00 0.00 36 1005.5
20220520091048 59 302 0.0 2.0 0.00 0.00 0.00 38 1005.6
20220520090546 59 302 1.0 2.0 0.00 0.00 0.00 36 1005.7
20220520090055 59 302 0.0 2.0 0.00 0.00 0.00 33 1005.7
20220520085547 60 302 0.0 1.0 0.00 0.00 0.00 31 1005.7
20220520085050 60 302 0.0 1.0 0.00 0.00 0.00 32 1005.7
20220520084542 60 302 0.0 2.0 0.00 0.00 0.00 32 1005.9
20220520084045 60 302 0.0 3.0 0.00 0.00 0.00 31 1005.8
20220520083540 60 302 1.0 3.0 0.00 0.00 0.00 28 1006.0
20220520083038 61 302 0.0 2.0 0.00 0.00 0.00 27 1006.0
20220520082538 61 302 0.0 2.0 0.00 0.00 0.00 26 1006.0
20220520082037 61 302 0.0 2.0 0.00 0.00 0.00 26 1006.0
20220520081537 61 302 1.0 2.0 0.00 0.00 0.00 25 1006.0
20220520081036 61 302 0.0 2.0 0.00 0.00 0.00 24 1006.1
20220520080534 62 302 0.0 2.0 0.00 0.00 0.00 25 1006.1
20220520080033 62 302 0.0 2.0 0.00 0.00 0.00 24 1006.2
20220520075533 62 302 0.0 2.0 0.00 0.00 0.00 22 1006.3
20220520075032 63 302 0.0 2.0 0.00 0.00 0.00 22 1006.2
20220520074531 63 302 0.0 2.0 0.00 0.00 0.00 23 1006.2
20220520074031 63 302 0.0 0.0 0.00 0.00 0.00 25 1006.3
20220520073528 63 302 0.0 2.0 0.00 0.00 0.00 24 1006.4
20220520073027 64 302 0.0 2.0 0.00 0.00 0.00 21 1006.4
20220520072525 64 302 0.0 2.0 0.00 0.00 0.00 21 1006.4
20220520072028 64 302 0.0 2.0 0.00 0.00 0.00 21 1006.5
20220520071523 64 302 0.0 3.0 0.00 0.00 0.00 20 1006.5
20220520071023 65 302 0.0 4.0 0.00 0.00 0.00 19 1006.6
20220520070523 65 303 1.0 5.0 0.00 0.00 0.00 19 1006.6
20220520070020 65 311 2.0 6.0 0.00 0.00 0.00 19 1006.7
20220520065521 65 328 2.0 8.0 0.00 0.00 0.00 19 1006.6
20220520065021 66 329 2.0 8.0 0.00 0.00 0.00 17 1006.6
20220520064520 66 5 2.0 8.0 0.00 0.00 0.00 18 1006.6
20220520064022 66 338 3.0 9.0 0.00 0.00 0.00 15 1006.7
20220520063523 66 317 3.0 9.0 0.00 0.00 0.00 14 1006.7
20220520063027 67 302 2.0 8.0 0.00 0.00 0.00 15 1006.8
20220520062518 67 302 4.0 9.0 0.00 0.00 0.00 14 1006.8
20220520062017 67 311 2.0 9.0 0.00 0.00 0.00 15 1007.0
20220520061522 67 301 3.0 11.0 0.00 0.00 0.00 14 1007.0
20220520061019 67 304 3.0 10.0 0.00 0.00 0.00 14 1007.0
20220520060518 68 308 4.0 9.0 0.00 0.00 0.00 13 1007.1
20220520060016 68 300 3.0 10.0 0.00 0.00 0.00 13 1007.1
20220520055515 68 320 3.0 10.0 0.00 0.00 0.00 13 1007.2
20220520055014 68 323 3.0 14.0 0.00 0.00 0.00 13 1007.2
20220520054515 68 300 7.0 14.0 0.00 0.00 0.00 12 1007.2
20220520054017 68 348 4.0 13.0 0.00 0.00 0.00 12 1007.3
20220520053515 68 315 5.0 13.0 0.00 0.00 0.00 12 1007.3
20220520053020 68 331 5.0 11.0 0.00 0.00 0.00 13 1007.3
20220520052521 68 291 6.0 11.0 0.00 0.00 0.00 13 1007.4
20220520052012 68 302 4.0 14.0 0.00 0.00 0.00 14 1007.3
20220520051512 67 292 4.0 14.0 0.00 0.00 0.00 14 1007.3
20220520051010 67 293 4.0 12.0 0.00 0.00 0.00 15 1007.3
20220520050512 67 304 4.0 12.0 0.00 0.00 0.00 16 1007.4
20220520050017 67 315 5.0 11.0 0.00 0.00 0.00 16 1007.3
20220520045509 67 292 4.0 11.0 0.00 0.00 0.00 18 1007.4
20220520045009 67 290 3.0 10.0 0.00 0.00 0.00 19 1007.3
20220520044513 67 293 2.0 12.0 0.00 0.00 0.00 20 1007.5
20220520044008 67 294 3.0 12.0 0.00 0.00 0.00 20 1007.4
20220520043509 67 320 1.0 8.0 0.00 0.00 0.00 22 1007.4
20220520043007 68 313 2.0 6.0 0.00 0.00 0.00 22 1007.5
20220520042508 68 303 2.0 9.0 0.00 0.00 0.00 23 1007.5
20220520042006 68 309 4.0 11.0 0.00 0.00 0.00 23 1007.3
20220520041509 68 288 3.0 11.0 0.00 0.00 0.00 24 1007.4
20220520041006 68 291 3.0 10.0 0.00 0.00 0.00 25 1007.4
20220520040505 69 293 5.0 10.0 0.00 0.00 0.00 24 1007.4
20220520040009 69 298 2.0 8.0 0.00 0.00 0.00 27 1007.4
20220520035505 69 285 3.0 8.0 0.00 0.00 0.00 27 1007.4
20220520035004 69 284 3.0 10.0 0.00 0.00 0.00 27 1007.4
20220520034506 70 280 4.0 10.0 0.00 0.00 0.00 27 1007.5
20220520034005 70 297 3.0 12.0 0.00 0.00 0.00 27 1007.5
20220520033503 70 302 5.0 12.0 0.00 0.00 0.00 27 1007.5
20220520033002 70 306 5.0 10.0 0.00 0.00 0.00 27 1007.5
20220520032503 71 281 3.0 11.0 0.00 0.00 0.00 28 1007.5
20220520032004 71 313 5.0 11.0 0.00 0.00 0.00 28 1007.6
20220520031501 71 300 4.0 11.0 0.00 0.00 0.00 28 1007.6
20220520031001 71 303 5.0 18.0 0.00 0.00 0.00 28 1007.5
20220520030501 71 300 9.0 18.0 0.00 0.00 0.00 28 1007.6
20220520030103 72 288 8.0 18.0 0.00 0.00 0.00 29 1007.6
20220520025602 72 281 4.0 9.0 0.00 0.00 0.00 30 1007.6
20220520025100 72 309 4.0 12.0 0.00 0.00 0.00 31 1007.6
20220520024625 72 297 5.0 12.0 0.00 0.00 0.00 30 1007.5
20220520024058 73 292 6.0 11.0 0.00 0.00 0.00 31 1007.7
20220520023558 73 294 6.0 12.0 0.00 0.00 0.00 31 1007.6
20220520023103 73 275 6.0 12.0 0.00 0.00 0.00 32 1007.6
20220520022602 73 294 5.0 11.0 0.00 0.00 0.00 32 1007.7
20220520022057 73 300 4.0 11.0 0.00 0.00 0.00 33 1007.7
20220520021608 74 288 6.0 14.0 0.00 0.00 0.00 32 1007.6
20220520021059 74 285 7.0 14.0 0.00 0.00 0.00 33 1007.6
20220520020556 74 293 6.0 12.0 0.00 0.00 0.00 33 1007.7
20220520020057 74 302 6.0 12.0 0.00 0.00 0.00 33 1007.6
20220520015554 75 287 7.0 13.0 0.00 0.00 0.00 32 1007.7
20220520015055 75 302 6.0 14.0 0.00 0.00 0.00 33 1007.7
20220520014557 75 269 7.0 15.0 0.00 0.00 0.00 32 1007.7
20220520014054 75 271 7.0 13.0 0.00 0.00 0.00 32 1007.8
20220520013557 76 300 6.0 12.0 0.00 0.00 0.00 32 1007.8
20220520013106 76 279 8.0 14.0 0.00 0.00 0.00 32 1007.7
20220520012554 76 302 6.0 14.0 0.00 0.00 0.00 31 1007.7
20220520012055 76 283 6.0 15.0 0.00 0.00 0.00 31 1007.7
20220520011552 77 294 8.0 17.0 0.00 0.00 0.00 31 1007.8
20220520011054 78 296 8.0 15.0 0.00 0.00 0.00 30 1007.7
20220520010551 78 300 5.0 15.0 0.00 0.00 0.00 31 1007.8
20220520010052 78 300 5.0 14.0 0.00 0.00 0.00 31 1007.8
20220520005550 78 311 8.0 14.0 0.00 0.00 0.00 30 1007.8
20220520005050 78 306 7.0 14.0 0.00 0.00 0.00 30 1008.1
20220520004549 78 305 4.0 12.0 0.00 0.00 0.00 31 1008.0
20220520004047 79 269 6.0 12.0 0.00 0.00 0.00 30 1008.0
20220520003547 79 300 4.0 12.0 0.00 0.00 0.00 30 1008.0
20220520003051 79 286 6.0 13.0 0.00 0.00 0.00 30 1008.1
20220520002546 79 303 6.0 14.0 0.00 0.00 0.00 30 1008.1
20220520002046 79 303 7.0 14.0 0.00 0.00 0.00 29 1008.1
20220520001558 79 294 7.0 14.0 0.00 0.00 0.00 30 1008.1